N4VTB-13 Weather Reports


time (UTC)temp
F
wind
direction
speed
knots
gust
knots
rain 1hr
in
rain 24hr
in
rain mn
in
humidity
%
barometer
mb
20260503194117 78 248 0.9 1.7 0.00 0.00 0.00 42 1014.1
20260503193117 79 0.0 0.9 0.00 0.00 0.00 45 1014.4
20260503192117 77 0.0 0.9 0.00 0.00 0.00 46 1014.3
20260503191117 76 0.0 0.9 0.00 0.00 0.00 47 1014.4
20260503190117 77 158 0.9 1.7 0.00 0.00 0.00 45 1014.4
20260503185117 76 225 0.9 1.7 0.00 0.00 0.00 47 1014.6
20260503184117 76 158 0.9 3.5 0.00 0.00 0.00 46 1014.7
20260503183117 75 180 0.9 1.7 0.00 0.00 0.00 48 1014.7
20260503182116 76 0 0.9 1.7 0.00 0.00 0.00 46 1014.9
20260503181117 74 0.0 0.9 0.00 0.00 0.00 51 1014.9
20260503180117 74 45 0.9 3.5 0.00 0.00 0.00 51 1015.0
20260503175117 73 0.0 0.9 0.00 0.00 0.00 54 1015.1
20260503174117 73 203 0.9 1.7 0.00 0.00 0.00 52 1015.1
20260503173117 73 90 0.9 1.7 0.00 0.00 0.00 53 1015.2
20260503172136 71 68 0.9 0.9 0.00 0.00 0.00 54 1015.2
20260503171117 70 0.0 0.9 0.00 0.00 0.00 56 1015.4
20260503170117 69 158 0.9 1.7 0.00 0.00 0.00 58 1015.4
20260503160116 60 0.0 0.0 0.00 0.00 0.00 78 1015.4
20260503150136 54 0.0 0.0 0.00 0.00 0.00 91 1015.4
20260503140137 52 0.0 0.0 0.00 0.00 0.00 91 1015.2
20260503131116 52 0.0 0.0 0.00 0.00 0.00 89 1015.1
20260503130116 52 0.0 0.0 0.00 0.00 0.00 89 1015.2
20260503120116 53 0.0 0.0 0.00 0.00 0.00 87 1015.2
20260503110116 53 0.0 0.0 0.00 0.00 0.00 86 1015.6
20260503100136 55 0.0 0.0 0.00 0.00 0.00 82 1015.6
20260503090116 56 0.0 0.0 0.00 0.00 0.00 77 1015.8
20260503081115 57 0.0 0.0 0.00 0.00 0.00 75 1015.8
20260503080107 57 0.0 0.0 0.00 0.00 0.00 75 1015.8
20260503072115 58 0.0 0.0 0.00 0.00 0.00 72 1015.7
20260503071135 58 0.0 0.0 0.00 0.00 0.00 72 1015.7
20260503070116 58 0.0 0.0 0.00 0.00 0.00 71 1015.5
20260503060116 59 0.0 0.0 0.00 0.00 0.00 69 1015.6
20260503055116 59 0.0 0.0 0.00 0.00 0.00 69 1015.6
20260503054116 59 0.0 0.0 0.00 0.00 0.00 69 1015.5
20260503053116 59 0.0 0.0 0.00 0.00 0.00 68 1015.5
20260503052116 60 0.0 0.9 0.00 0.00 0.00 68 1015.5
20260503051116 60 0.0 0.0 0.00 0.00 0.00 67 1015.5
20260503050115 60 0.0 0.0 0.00 0.00 0.00 65 1015.5
20260503045136 60 0.0 0.0 0.00 0.00 0.00 65 1015.5
20260503044116 61 0.0 0.0 0.00 0.00 0.00 67 1015.4
20260503043115 61 0.0 0.0 0.00 0.00 0.00 66 1015.3
20260503042115 62 0.0 0.0 0.00 0.00 0.00 64 1015.1
20260503041115 62 0.0 0.0 0.00 0.00 0.00 64 1015.0
20260503040116 62 0.0 0.0 0.00 0.00 0.00 63 1014.9
20260503035136 63 0.0 0.0 0.00 0.00 0.00 63 1014.9
20260503034136 63 0.0 0.0 0.00 0.00 0.00 63 1014.6
20260503033115 64 0.0 0.0 0.00 0.00 0.00 62 1014.4
20260503032115 65 0.0 0.0 0.00 0.00 0.00 64 1014.3
20260503031116 65 0.0 0.0 0.00 0.00 0.00 62 1014.2
20260503030115 66 0.0 0.0 0.00 0.00 0.00 63 1014.2
20260503025115 67 0.0 0.0 0.00 0.00 0.00 64 1014.1
20260503024115 67 0.0 0.0 0.00 0.00 0.00 63 1014.1
20260503023116 68 0.0 0.0 0.00 0.00 0.00 63 1014.1
20260503022135 68 0.0 0.9 0.00 0.00 0.00 61 1014.0
20260503021116 69 0.0 0.0 0.00 0.00 0.00 59 1014.1
20260503020116 70 158 0.9 2.6 0.00 0.00 0.00 60 1014.0
20260503015116 71 0.0 0.9 0.00 0.00 0.00 58 1014.0
20260503014115 71 0.0 0.9 0.00 0.00 0.00 56 1014.1
20260503013115 71 338 0.9 1.7 0.00 0.00 0.00 57 1014.0
20260503012115 72 203 0.9 0.9 0.00 0.00 0.00 56 1014.2
20260503011136 72 203 0.9 1.7 0.00 0.00 0.00 57 1014.1
20260503010115 73 113 1.7 4.3 0.00 0.00 0.00 56 1014.1
20260503005135 73 0.0 0.9 0.00 0.00 0.00 58 1014.3
20260503004115 73 180 0.9 1.7 0.00 0.00 0.00 57 1014.4
20260503003115 73 0.0 0.9 0.00 0.00 0.00 58 1014.4
20260503002216 73 0.0 0.9 0.00 0.00 0.00 59 1014.4
20260503001116 73 113 0.9 1.7 0.00 0.00 0.00 58 1014.4
20260503000115 73 0.0 0.9 0.00 0.00 0.00 58 1014.4
20260502235115 74 315 0.9 0.9 0.00 0.00 0.00 57 1014.5
20260502234115 74 180 0.9 2.6 0.00 0.00 0.00 57 1014.7
20260502233115 73 0.0 0.9 0.00 0.00 0.00 58 1014.8
20260502232115 72 0.0 0.9 0.00 0.00 0.00 59 1014.9
20260502231115 72 180 0.9 1.7 0.00 0.00 0.00 57 1015.0
20260502230117 72 180 0.9 1.7 0.00 0.00 0.00 58 1015.2
20260502225117 72 0.0 0.9 0.00 0.00 0.00 59 1015.2
20260502224157 72 0 0.9 0.9 0.00 0.00 0.00 60 1015.4
20260502223117 72 203 1.7 3.5 0.00 0.00 0.00 60 1015.6
20260502222117 72 203 1.7 3.5 0.00 0.00 0.00 59 1015.7
20260502221117 72 90 0.9 1.7 0.00 0.00 0.00 60 1015.7
20260502220117 72 23 0.9 1.7 0.00 0.00 0.00 60 1015.8
20260502215157 72 0.0 0.9 0.00 0.00 0.00 61 1016.0
20260502214117 71 113 0.9 1.7 0.00 0.00 0.00 62 1016.1
20260502213117 71 0.0 0.9 0.00 0.00 0.00 63 1016.1
20260502212117 71 0.0 0.9 0.00 0.00 0.00 63 1016.3
20260502211117 71 180 0.9 1.7 0.00 0.00 0.00 62 1016.3
20260502210117 71 158 0.9 1.7 0.00 0.00 0.00 62 1016.3
20260502205137 72 158 1.7 3.5 0.00 0.00 0.00 59 1016.3
20260502204117 72 0.0 0.9 0.00 0.00 0.00 59 1016.5
20260502203117 72 0.0 0.9 0.00 0.00 0.00 56 1016.5
20260502202117 70 225 1.7 2.6 0.00 0.00 0.00 59 1016.6
20260502201117 71 0.0 0.9 0.00 0.00 0.00 60 1016.7
20260502200117 71 113 0.9 2.6 0.00 0.00 0.00 62 1016.8
20260502195117 69 180 1.7 3.5 0.00 0.00 0.00 61 1016.9